Weather in Gafsa

Tunisia     34°25′23″N   8°47′08″E
temp.,
°C
wind,
m/s
gust,
m/s
humid.,
%
clouds,
%
prec.,
mm/h
press.,
hPa
HPBL,
m
8 may, sat
sat801:00+19ne22530 0.0 101816
04:00+18ne22620 0.0 101913
07:00+19n12550 0.0 1020107
10:00+24ne12310 0.0 1020913
13:00+27e11220 0.0 10191942
16:00+29sse01180 0.0 10172427
19:00+28ese11190 0.0 101719
22:00+23sse57255 0.0 1018211
9 may, sun
sun901:00+21e22385 0.0 101918
04:00+18ne22445 0.0 101812
07:00+19ne22425 0.0 1018154
10:00+25sse34275 0.0 1018866
13:00+28sse6523100 0.0 10161538
16:00+29se551995 0.0 10141872
19:00+26ese67265 0.0 1014427
22:00+22ene57315 0.0 1016191
10 may, mon
mon1001:00+19ne46400 0.0 1015187
04:00+19nne564790 0.0 1015316
07:00+19ne57434 0.0 1015326
10:00+25ene56330 0.0 1014706
13:00+31ese67220 0.0 10121653
16:00+31ene65210 0.0 10101440
19:00+28ene57250 0.0 1010450
22:00+23ne57400 0.0 1013222
11 may, tue
tue1101:00+21ne57423 0.0 1011150
04:00+19nne575337 0.0 1009153
07:00+20nne3455100 0.0 1011192
10:00+26ne3333100 0.0 1012618
13:00+31ene53210 0.0 10111542
16:00+33e55200 0.0 10102402
19:00+29e88310 0.0 1011601
22:00+20ne911456 0.0 1016778
12 may, wed
wed1201:00+18ne44505 0.0 1017485
04:00+17nne34470 0.0 1017195
07:00+17n57262 0.0 1019605
10:00+22n45230 0.0 10181330
13:00+25wsw24250 0.0 10172221
16:00+27sw44240 0.0 10152385
19:00+25wsw66280 0.0 10151034
22:00+22s35320 0.0 1016134